User: anonymous   Login
Location: Cheching
(60.0667°N, 164.2167°W)
Time: 10:28:33
(UTC+00:00)
Language:

XW-2C - Orbit

View from above orbital plane
View from above orbital plane
View from above satellite
View from above satellite

Ground track
Ground track

The orbit data is extracted from the following two-line orbital elements,

1 40906U 15049H   21017.06840907  .00000845  00000-0  46811-4 0  9994
2 40906  97.4826  21.3788 0014663 359.9814  71.0089 15.16430201294626
Epoch (UTC): 17 January 2021 01:38:30
Eccentricity: 0.0014663
inclination: 97.4826°
perigee height: 506 km
apogee height: 527 km
right ascension of ascending node: 21.3788°
argument of perigee: 359.9814°
revolutions per day: 15.16430201
mean anomaly at epoch: 71.0089°
orbit number at epoch: 29462

The dashed part of the orbit path shows where the satellite is in the earth's shadow,  

DLR